Regional Weather Roundup
Issued by NWS

Home | Current Version | Previous Version | Graphics & Text | Print | Product List | Glossary On
Versions: 1 2 3 4 5 6 7 8 9 10 11 12 13 14 15 16 17 18 19 20 21 22 23 24 25 26 27 28 29 30 31 32 33 34 35 36 37 38 39 40 41 42 43 44 45 46 47 48 49 50
000
ASUS43 KDTX 012010
RWRMI
MICHIGAN HOURLY REGIONAL WEATHER ROUNDUP
NATIONAL WEATHER SERVICE DETROIT/PONTIAC MI
400 PM EDT SAT AUG 01 2015

NOTE: "FAIR" INDICATES FEW OR NO CLOUDS BELOW 12,000 FEET WITH NO
SIGNIFICANT WEATHER AND/OR OBSTRUCTION TO VISIBILITY.

MIZ047>049-052>055-059>063-066>070-074>076-081>083-012100-
SOUTHEAST LOWER MICHIGAN

CITY           SKY/WX    TMP DP  RH WIND       PRES   REMARKS
ADRIAN         SUNNY     82  54  37 NW12      29.92F
ALMA           MOSUNNY   82  46  28 W16G22    29.88S
ANN ARBOR      MOSUNNY   81  52  36 W14G22    29.90F
BAD AXE        CLOUDY    78  53  40 W9G17     29.85F
CARO           CLOUDY    76  57  50 N9        29.86R
DETROIT CITY   SUNNY     82  49  31 W12       29.88F
DETROIT        MOSUNNY   85  51  31 W21       29.89F
FLINT          MOSUNNY   84  47  27 W22G28    29.87F
GROSSE ILE     MOSUNNY   84  48  28 W12G18    29.88F
HILLSDALE      MOSUNNY   82  51  34 NW12G22   29.95S
HOWELL         MOSUNNY   82  45  26 NW16G24   29.90S

CITY           SKY/WX    TMP DP  RH WIND       PRES   REMARKS
JACKSON        MOSUNNY   80  54  40 W10       29.92F
LAMBERTVILLE   PTSUNNY   82  52  34 W7        29.92F
LANSING        MOSUNNY   83  48  29 W18G29    29.91S
LAPEER         FAIR      81  50  33 W17G23    29.87F
MASON          MOSUNNY   81  50  33 W16       29.91S
MONROE         MOSUNNY   83  54  36 W13G21    29.89F
MT. CLEMENS    MOSUNNY   82  51  33 W15       29.86S
PONTIAC        MOSUNNY   82  49  31 W21G30    29.89F
PORT HOPE        N/A     76  56  49 W5        29.84S
PORT HURON     CLOUDY    75  59  57 CALM      29.87S
TRI CITIES     PTSUNNY   82  52  35 W16       29.86S
MIDLAND        PTSUNNY   82  49  31 W12G18    29.84F
TROY           MOSUNNY   82  48  30 W13G22    29.90S
SAGINAW HB     PTSUNNY   81  52  36 W16       29.85S
$$
MIZ043>046-050>051-056>058-064>065-071>073-077>080-012100-
SOUTHWEST LOWER MICHIGAN

CITY           SKY/WX    TMP DP  RH WIND       PRES   REMARKS
BATTLE CREEK   MOSUNNY   83  51  33 W13       29.94F
BENTON HARBOR  CLOUDY    76  59  55 NW5       29.95F
BIG RAPIDS     SUNNY     79  42  26 W15G22    29.89S
COLDWATER      PTSUNNY   79  48  34 W16       29.95S
FREMONT        FAIR      80  44  28 W13G24    29.91S
HOLLAND        SUNNY     79  56  45 W10       29.95S
GRAND RAPIDS   MOSUNNY   82  48  30 W18G28    29.92S
IONIA          FAIR      83  42  24 W17G29    29.89F
KALAMAZOO      SUNNY     83  52  34 W13G20    29.94F
LUDINGTON      SUNNY     78  59  52 SW10      29.90F
MARSHALL       MOSUNNY   82  53  36 W13G18    29.93S
MOUNT PLEASANT SUNNY     84  47  27 W10G18    29.86S
MUSKEGON       MOSUNNY   79  57  46 SW13      29.92F
SOUTH HAVEN    CLOUDY    76  58  53 W7        29.95F
$$
MIZ016>042-012100-
NORTHERN LOWER MICHIGAN

CITY           SKY/WX    TMP DP  RH WIND       PRES   REMARKS
ALPENA         CLOUDY    73  58  59 E12       29.83S
BEAVER ISLAND  MOSUNNY   74  57  55 SW16      29.85F
BELLAIRE       MOSUNNY   76  55  47 W9G17     29.87S
CADILLAC       MOSUNNY   81  49  33 W12G20    29.89S
CHARLEVOIX     SUNNY     74  58  56 W15       29.89S
FRANKFORT      SUNNY     75  60  58 W9        29.89F
GAYLORD        MOSUNNY   76  49  38 W14G22    29.87S
GRAYLING       MOSUNNY   78  50  37 W9G18     29.87S
HARBOR SPRINGS SUNNY     72  60  65 SW9       29.86S
HOUGHTON LAKE  MOSUNNY   79  52  38 W12G20    29.87F
MANISTEE       SUNNY     75  54  46 W9        29.90F
OSCODA         LGT RAIN  76  58  52 SE9       29.83R
PELLSTON       MOSUNNY   78  55  44 W12G20    29.84S
ROGERS CITY    PTSUNNY   72  58  62 N6        29.83F
TRAVERSE CITY  PTSUNNY   82  50  32 W15G21    29.84F
$$
MIZ007>008-015-012100-
EASTERN UPPER MICHIGAN

CITY           SKY/WX    TMP DP  RH WIND       PRES   REMARKS
KINROSS        MOSUNNY   72  57  60 N8G17     29.82R
MACKINAC ISLAN   N/A     72  59  64 W10G18    29.82F
NEWBERRY       MOSUNNY   77  51  39 W9G20     29.82S
S. S. MARIE    MOSUNNY   72  55  55 NW9G17    29.81S
MUNISING         N/A     74  60  61 NE6       29.83F
$$
MIZ004>006-011>014-085-012100-
CENTRAL UPPER MICHIGAN

CITY           SKY/WX    TMP DP  RH WIND       PRES   REMARKS
MANISTIQUE     PTSUNNY   73  61  64 SW13G21   29.82F
ESCANABA       MOSUNNY   81  48  32 W16G26    29.81F
MENOMINEE      MOSUNNY   81  54  39 NW7       29.85F
SAWYER-GWINN   MOSUNNY   79  46  31 W15G23    29.84F
$$
MIZ001>003-009>011-084-012100-
WESTERN UPPER MICHIGAN

CITY           SKY/WX    TMP DP  RH WIND       PRES   REMARKS
IRON MOUNTAIN  PTSUNNY   79  50  36 NW10      29.85F
HOUGHTON       SUNNY     74  53  48 W18G24    29.83F
COPPER HARBOR    N/A     75  58  55 N16G23    29.79F
IRONWOOD       SUNNY     75  52  43 NW13      29.84
$$

ABBREVIATIONS USED IN REMARKS
   TC - TEMPERATURE IN CELSIUS
  WCI - WIND CHILL INDEX
   HX - HEAT INDEX
  VSB - VISIBILITY



USA.gov is the U.S. government's official web portal to all federal, state and local government web resources and services.